Location: Anton
(37.3520°N, 87.3947°W)
Time: 17:35:17
(UTC+00:00)

Hubble Space Telescope - Pass Details

Date: 04 December 2022
Orbit: 529 x 532 km, 28.5° (Epoch: 07 February)

Event Time Altitude Azimuth Distance (km) Brightness Sun altitude
Rises 12:10:37 0° 212° (SSW) 2,643 4.2 -7.5°
Reaches altitude 10° 12:14:48 10° 170° (S) 1,756 3.9 -6.8°
Maximum altitude 12:15:31 10° 160° (SSE) 1,732 4.0 -6.6°
Drops below altitude 10° 12:16:14 10° 150° (SSE) 1,757 4.3 -6.5°
Sets 12:20:25 0° 108° (ESE) 2,648 7.0 -5.8°
